| time (UTC) | temp F | wind direction | speed MPH | gust MPH | rain 1hr in | rain 24hr in | rain mn in | humidity % | barometer mb |
| 20260510173045 | 69 | 272 | 1.0 | 3.0 | 0.00 | 0.00 | 0.00 | 28 | 1032.5 |
| 20260510171532 | 68 | 221 | 0.0 | 3.0 | 0.00 | 0.00 | 0.00 | 31 | 1032.1 |
| 20260510170031 | 66 | 255 | 0.0 | 2.0 | 0.00 | 0.00 | 0.00 | 33 | 1031.8 |
| 20260510164529 | 65 | 214 | 0.0 | 2.0 | 0.00 | 0.00 | 0.00 | 33 | 1032.2 |
| 20260510163143 | 64 | 237 | 0.0 | 2.0 | 0.00 | 0.00 | 0.00 | 35 | 1032.0 |
| 20260510161557 | 62 | 360 | 0.0 | 3.0 | 0.00 | 0.00 | 0.00 | 37 | 1031.8 |
| 20260510160059 | 59 | 17 | 0.0 | 3.0 | 0.00 | 0.00 | 0.00 | 40 | 1032.2 |
| 20260510154555 | 58 | 11 | 0.0 | 3.0 | 0.00 | 0.00 | 0.00 | 43 | 1032.2 |
| 20260510153102 | 58 | 30 | 2.0 | 7.0 | 0.00 | 0.00 | 0.00 | 43 | 1032.3 |
| 20260510151620 | 57 | 21 | 3.0 | 12.0 | 0.00 | 0.00 | 0.00 | 44 | 1032.7 |
| 20260510150057 | 56 | 23 | 7.0 | 17.0 | 0.00 | 0.00 | 0.00 | 45 | 1032.6 |
| 20260510144558 | 56 | 264 | 3.0 | 11.0 | 0.00 | 0.00 | 0.00 | 46 | 1033.1 |
| 20260510143058 | 56 | 344 | 2.0 | 12.0 | 0.00 | 0.00 | 0.00 | 45 | 1033.1 |
| 20260510141543 | 56 | 287 | 0.0 | 7.0 | 0.00 | 0.00 | 0.00 | 43 | 1032.8 |
| 20260510140037 | 56 | 12 | 1.0 | 7.0 | 0.00 | 0.00 | 0.00 | 41 | 1032.0 |
| 20260510134540 | 57 | 252 | 3.0 | 12.0 | 0.00 | 0.00 | 0.00 | 39 | 1031.8 |
| 20260510133034 | 57 | 50 | 3.0 | 10.0 | 0.00 | 0.00 | 0.00 | 37 | 1031.0 |
| 20260510131531 | 57 | 6 | 3.0 | 9.0 | 0.00 | 0.00 | 0.00 | 36 | 1030.9 |
| 20260510130026 | 57 | 19 | 8.0 | 9.0 | 0.00 | 0.00 | 0.00 | 36 | 1030.2 |
| 20260510124530 | 0 | 0.0 | 0.0 | 0.00 | 0.00 | 0.00 | 1030.0 | ||
| 20260510123016 | 0 | 0.0 | 0.0 | 0.00 | 0.00 | 0.00 | 1029.8 | ||
| 20260510121517 | 0 | 0.0 | 0.0 | 0.00 | 0.00 | 0.00 | 1029.3 | ||
| 20260510120009 | 0 | 0.0 | 0.0 | 0.00 | 0.00 | 0.00 | 1028.8 | ||
| 20260510114502 | 0 | 0.0 | 0.0 | 0.00 | 0.00 | 0.00 | 1028.9 | ||
| 20260510113057 | 0 | 0.0 | 0.0 | 0.00 | 0.00 | 0.00 | 1029.0 | ||
| 20260510111556 | 60 | 12 | 2.0 | 9.0 | 0.00 | 0.00 | 0.00 | 24 | 1029.0 |
| 20260510110055 | 61 | 8 | 2.0 | 12.0 | 0.00 | 0.00 | 0.00 | 23 | 1029.0 |
| 20260510104553 | 61 | 195 | 0.0 | 0.0 | 0.00 | 0.00 | 0.00 | 22 | 1028.5 |
| 20260510103050 | 61 | 141 | 0.0 | 2.0 | 0.00 | 0.00 | 0.00 | 22 | 1028.4 |
| 20260510101553 | 62 | 280 | 0.0 | 4.0 | 0.00 | 0.00 | 0.00 | 22 | 1028.5 |
| 20260510100107 | 61 | 210 | 0.0 | 1.0 | 0.00 | 0.00 | 0.00 | 22 | 1028.6 |
| 20260510094519 | 62 | 46 | 0.0 | 4.0 | 0.00 | 0.00 | 0.00 | 21 | 1028.4 |
| 20260510093018 | 61 | 46 | 0.0 | 4.0 | 0.00 | 0.00 | 0.00 | 23 | 1028.4 |
| 20260510091517 | 59 | 167 | 0.0 | 2.0 | 0.00 | 0.00 | 0.00 | 25 | 1028.4 |
| 20260510090014 | 55 | 195 | 0.0 | 0.0 | 0.00 | 0.00 | 0.00 | 32 | 1028.5 |
| 20260510084516 | 55 | 195 | 0.0 | 0.0 | 0.00 | 0.00 | 0.00 | 32 | 1028.5 |
| 20260510083018 | 56 | 195 | 0.0 | 0.0 | 0.00 | 0.00 | 0.00 | 30 | 1028.5 |
| 20260510081602 | 58 | 195 | 0.0 | 0.0 | 0.00 | 0.00 | 0.00 | 29 | 1028.4 |
| 20260510080059 | 60 | 195 | 0.0 | 0.0 | 0.00 | 0.00 | 0.00 | 27 | 1028.5 |
| 20260510074552 | 63 | 195 | 0.0 | 0.0 | 0.00 | 0.00 | 0.00 | 25 | 1028.7 |
| 20260510073101 | 66 | 195 | 0.0 | 0.0 | 0.00 | 0.00 | 0.00 | 24 | 1028.8 |
| 20260510071550 | 66 | 195 | 0.0 | 3.0 | 0.00 | 0.00 | 0.00 | 22 | 1029.0 |
| 20260510070050 | 67 | 26 | 0.0 | 4.0 | 0.00 | 0.00 | 0.00 | 22 | 1029.3 |
| 20260510064548 | 67 | 211 | 0.0 | 3.0 | 0.00 | 0.00 | 0.00 | 22 | 1029.3 |
| 20260510063047 | 66 | 203 | 0.0 | 6.0 | 0.00 | 0.00 | 0.00 | 23 | 1029.5 |
| 20260510061535 | 64 | 220 | 0.0 | 4.0 | 0.00 | 0.00 | 0.00 | 25 | 1029.7 |
| 20260510060032 | 63 | 217 | 0.0 | 0.0 | 0.00 | 0.00 | 0.00 | 25 | 1029.9 |
| 20260510054530 | 63 | 218 | 0.0 | 3.0 | 0.00 | 0.00 | 0.00 | 25 | 1029.9 |
| 20260510053029 | 64 | 190 | 0.0 | 0.0 | 0.00 | 0.00 | 0.00 | 24 | 1029.8 |
| 20260510051600 | 66 | 190 | 0.0 | 0.0 | 0.00 | 0.00 | 0.00 | 23 | 1030.0 |
| 20260510050059 | 66 | 200 | 0.0 | 3.0 | 0.00 | 0.00 | 0.00 | 23 | 1030.3 |
| 20260510044559 | 67 | 212 | 0.0 | 2.0 | 0.00 | 0.00 | 0.00 | 22 | 1030.5 |
| 20260510043109 | 66 | 217 | 0.0 | 3.0 | 0.00 | 0.00 | 0.00 | 23 | 1030.5 |
| 20260510041554 | 64 | 174 | 0.0 | 2.0 | 0.00 | 0.00 | 0.00 | 24 | 1030.4 |
| 20260510040100 | 59 | 196 | 2.0 | 7.0 | 0.00 | 0.00 | 0.00 | 28 | 1030.6 |
| 20260510034524 | 56 | 214 | 0.0 | 0.0 | 0.00 | 0.00 | 0.00 | 28 | 1030.2 |
| 20260510033023 | 57 | 214 | 0.0 | 0.0 | 0.00 | 0.00 | 0.00 | 27 | 1029.7 |
| 20260510031521 | 58 | 214 | 0.0 | 0.0 | 0.00 | 0.00 | 0.00 | 26 | 1029.5 |
| 20260510030020 | 60 | 214 | 0.0 | 0.0 | 0.00 | 0.00 | 0.00 | 24 | 1029.5 |
| 20260510024522 | 62 | 214 | 0.0 | 0.0 | 0.00 | 0.00 | 0.00 | 22 | 1029.2 |
| 20260510023019 | 63 | 214 | 0.0 | 0.0 | 0.00 | 0.00 | 0.00 | 21 | 1029.0 |
| 20260510021518 | 65 | 214 | 0.0 | 0.0 | 0.00 | 0.00 | 0.00 | 20 | 1028.7 |
| 20260510020016 | 68 | 214 | 0.0 | 0.0 | 0.00 | 0.00 | 0.00 | 18 | 1028.5 |
| 20260510014515 | 70 | 214 | 0.0 | 1.0 | 0.00 | 0.00 | 0.00 | 16 | 1028.1 |
| 20260510013014 | 72 | 102 | 0.0 | 8.0 | 0.00 | 0.00 | 0.00 | 15 | 1028.0 |
| 20260510011529 | 73 | 212 | 0.0 | 8.0 | 0.00 | 0.00 | 0.00 | 15 | 1027.9 |
| 20260510010011 | 74 | 226 | 2.0 | 6.0 | 0.00 | 0.00 | 0.00 | 14 | 1027.7 |
| 20260510004513 | 75 | 257 | 1.0 | 3.0 | 0.00 | 0.00 | 0.00 | 14 | 1027.8 |
| 20260510003011 | 76 | 30 | 0.0 | 1.0 | 0.00 | 0.00 | 0.00 | 14 | 1027.8 |
| 20260510001507 | 78 | 176 | 1.0 | 4.0 | 0.00 | 0.00 | 0.00 | 12 | 1027.7 |
| 20260510000014 | 80 | 203 | 1.0 | 5.0 | 0.00 | 0.00 | 0.00 | 12 | 1027.9 |
| 20260509234506 | 79 | 212 | 0.0 | 7.0 | 0.00 | 0.00 | 0.00 | 12 | 1027.9 |
| 20260509233006 | 79 | 210 | 0.0 | 4.0 | 0.00 | 0.00 | 0.00 | 12 | 1028.1 |
| 20260509231503 | 79 | 23 | 2.0 | 8.0 | 0.00 | 0.00 | 0.00 | 12 | 1028.2 |
| 20260509230002 | 80 | 11 | 1.0 | 5.0 | 0.00 | 0.00 | 0.00 | 11 | 1028.3 |
| 20260509224559 | 80 | 29 | 0.0 | 8.0 | 0.00 | 0.00 | 0.00 | 11 | 1028.6 |
| 20260509223106 | 81 | 191 | 2.0 | 8.0 | 0.00 | 0.00 | 0.00 | 11 | 1028.6 |
| 20260509221554 | 81 | 238 | 1.0 | 6.0 | 0.00 | 0.00 | 0.00 | 11 | 1028.9 |
| 20260509220053 | 81 | 233 | 3.0 | 7.0 | 0.00 | 0.00 | 0.00 | 11 | 1029.2 |
| 20260509214552 | 81 | 145 | 2.0 | 8.0 | 0.00 | 0.00 | 0.00 | 11 | 1029.4 |
| 20260509213050 | 81 | 150 | 2.0 | 9.0 | 0.00 | 0.00 | 0.00 | 11 | 1029.5 |
| 20260509211548 | 80 | 198 | 1.0 | 9.0 | 0.00 | 0.00 | 0.00 | 12 | 1029.7 |
| 20260509210052 | 79 | 207 | 3.0 | 7.0 | 0.00 | 0.00 | 0.00 | 12 | 1030.1 |
| 20260509204551 | 80 | 289 | 1.0 | 6.0 | 0.00 | 0.00 | 0.00 | 13 | 1030.2 |
| 20260509203041 | 80 | 198 | 1.0 | 12.0 | 0.00 | 0.00 | 0.00 | 12 | 1030.5 |
| 20260509201540 | 81 | 221 | 0.0 | 10.0 | 0.00 | 0.00 | 0.00 | 13 | 1030.6 |
| 20260509200041 | 81 | 256 | 1.0 | 6.0 | 0.00 | 0.00 | 0.00 | 12 | 1030.7 |
| 20260509194537 | 81 | 236 | 1.0 | 6.0 | 0.00 | 0.00 | 0.00 | 12 | 1030.9 |
| 20260509193032 | 79 | 185 | 1.0 | 5.0 | 0.00 | 0.00 | 0.00 | 12 | 1031.0 |
| 20260509191529 | 80 | 215 | 1.0 | 6.0 | 0.00 | 0.00 | 0.00 | 12 | 1031.3 |
| 20260509190058 | 78 | 261 | 1.0 | 6.0 | 0.00 | 0.00 | 0.00 | 13 | 1031.6 |
| 20260509184603 | 77 | 32 | 1.0 | 10.0 | 0.00 | 0.00 | 0.00 | 13 | 1031.7 |
| 20260509183051 | 77 | 34 | 2.0 | 11.0 | 0.00 | 0.00 | 0.00 | 13 | 1031.8 |
| 20260509181609 | 76 | 6 | 5.0 | 11.0 | 0.00 | 0.00 | 0.00 | 13 | 1032.0 |
| 20260509180049 | 76 | 276 | 3.0 | 8.0 | 0.00 | 0.00 | 0.00 | 13 | 1032.3 |
| 20260509174549 | 75 | 27 | 3.0 | 11.0 | 0.00 | 0.00 | 0.00 | 13 | 1032.6 |